Weather History for Anchorage Merrill, AK

Change the Weather History Date:

Monday, October 15, 2012

  Actual Average Record
Temperature  
Mean Temperature 36 °F -  
Max Temperature 39 °F 39 °F 60 °F (2013)
Min Temperature 32 °F 26 °F 14 °F (1997)
Degree Days  
Heating Degree Days 30    
Moisture  
Dew Point 31 °F    
Average Humidity 87    
Maximum Humidity 100    
Minimum Humidity 59    
Precipitation  
Precipitation 0.05 in - - ()
Sea Level Pressure  
Sea Level Pressure 29.02 in    
Wind  
Wind Speed 3 mph (North)    
Max Wind Speed 10 mph    
Max Gust Speed -    
Visibility 8 miles    
Events Rain , Snow    
Averages and records for this station are not official NWS values.
T = Trace of Precipitation, MM = Missing Value Source: NWS Daily Summary

Daily Weather History Graph

Daily Weather History Graph

Search for Another Location

Airport:

Trip Planner

Search our weather history database for the weather conditions in past years. The results will help you decide how hot, cold, wet, or windy it might be!

Date:

Astronomy

Oct. 15, 2012 Rise Set
Actual Time 8:43 AM AKDT 6:45 PM AKDT
Civil Twilight 7:59 AM AKDT 7:29 PM AKDT
Nautical Twilight 7:09 AM AKDT 8:19 PM AKDT
Astronomical Twilight 6:18 AM AKDT 9:09 PM AKDT
Moon 9:27 AM AKDT (10/15) 6:24 PM AKDT (10/15)
Length of Visible Light 11h 29m
Length of Day
10h 01m
New Moon, 0% of the Moon is Illuminated
Oct 15
New Moon
Oct 21
First Quarter
Oct 29
Full
Nov 6
Last Quarter
Nov 13
New

Hourly Weather History & Observations

Time (AKDT) Temp. Windchill Dew Point Humidity Pressure Visibility Wind Dir Wind Speed Gust Speed Precip Events Conditions
12:53 AM 37.0 °F - 35.1 °F 93% 28.92 in 10.0 mi Calm Calm - 0.01 in Rain Light Rain
1:53 AM 37.0 °F 34.5 °F 32.0 °F 82% 28.93 in 10.0 mi North 3.5 mph - 0.00 in   Overcast
2:53 AM 37.0 °F - 30.9 °F 79% 28.92 in 10.0 mi Calm Calm - N/A   Overcast
3:53 AM 36.0 °F 33.3 °F 30.0 °F 79% 28.92 in 10.0 mi North 3.5 mph - N/A   Overcast
4:53 AM 36.0 °F - 32.0 °F 86% 28.94 in 10.0 mi Calm Calm - N/A   Overcast
5:34 AM 35.6 °F - 32.0 °F 87% 28.94 in 10.0 mi Calm Calm - 0.00 in   Light Drizzle
5:53 AM 36.0 °F - 32.0 °F 86% 28.95 in 10.0 mi Calm Calm - 0.00 in   Light Drizzle
6:53 AM 35.1 °F - 32.0 °F 89% 28.97 in 4.0 mi Calm Calm - 0.00 in Snow Light Snow
7:53 AM 34.0 °F - 33.1 °F 96% 29.00 in 2.5 mi Calm Calm - 0.02 in Snow Light Snow
7:59 AM 33.8 °F - 33.8 °F 100% 28.99 in 3.0 mi Calm Calm - 0.00 in Snow Light Snow
8:15 AM 33.8 °F - 32.0 °F 93% 29.00 in 2.5 mi Calm Calm - 0.01 in Snow Light Snow
8:53 AM 34.0 °F - 33.1 °F 96% 29.02 in 2.5 mi Calm Calm - 0.02 in Rain Light Rain
9:53 AM 35.1 °F 32.2 °F 34.0 °F 96% 29.03 in 2.5 mi NNW 3.5 mph - 0.00 in   Overcast
10:00 AM 35.6 °F 29.2 °F 33.8 °F 93% 29.03 in 4.0 mi NNW 8.1 mph - N/A   Overcast
10:53 AM 35.1 °F 30.1 °F 33.1 °F 92% 29.05 in 6.0 mi North 5.8 mph - N/A   Overcast
11:53 AM 35.1 °F 30.1 °F 33.1 °F 92% 29.06 in 4.0 mi North 5.8 mph - N/A   Overcast
12:00 PM 35.6 °F 30.7 °F 33.8 °F 93% 29.06 in 10.0 mi North 5.8 mph - N/A   Overcast
12:53 PM 37.0 °F 32.4 °F 35.1 °F 93% 29.06 in 10.0 mi North 5.8 mph - N/A   Overcast
1:53 PM 37.0 °F 31.0 °F 35.1 °F 93% 29.06 in 10.0 mi North 8.1 mph - N/A   Overcast
2:53 PM 37.9 °F 32.7 °F 35.1 °F 89% 29.06 in 10.0 mi North 6.9 mph - N/A   Overcast
3:53 PM 39.0 °F 32.8 °F 34.0 °F 82% 29.05 in 10.0 mi North 9.2 mph - N/A   Mostly Cloudy
4:53 PM 36.0 °F 28.5 °F 32.0 °F 86% 29.05 in 10.0 mi NNW 10.4 mph - N/A   Overcast
5:53 PM 34.0 °F 26.6 °F 30.9 °F 89% 29.05 in 10.0 mi NNW 9.2 mph - 0.00 in   Overcast
6:53 PM 33.1 °F 26.9 °F 30.9 °F 92% 29.05 in 10.0 mi North 6.9 mph - N/A   Overcast
7:53 PM 33.1 °F 25.5 °F 30.9 °F 92% 29.06 in 10.0 mi North 9.2 mph - N/A   Overcast
8:53 PM 32.0 °F 25.6 °F 30.0 °F 92% 29.06 in 4.0 mi NNW 6.9 mph - 0.00 in   Overcast
9:28 PM 33.8 °F 27.7 °F 26.6 °F 75% 29.06 in 4.0 mi NNW 6.9 mph - N/A   Haze
9:53 PM 33.1 °F 26.1 °F 26.1 °F 75% 29.07 in 10.0 mi NNW 8.1 mph - N/A   Overcast
10:53 PM 32.0 °F 26.4 °F 21.9 °F 66% 29.08 in 10.0 mi North 5.8 mph - N/A   Overcast
11:53 PM 32.0 °F 26.4 °F 19.0 °F 59% 29.10 in 10.0 mi North 5.8 mph - N/A   Overcast